IRIDIUM 173 (43925 NORAD) Tracking and Keplerian Element Data
This shows tracking and keplerian element data for the satellite.
Feedback or suggestion? Click here.
Element | Value |
Catalog | 43925 |
Name | IRIDIUM 173 |
Epoch Orbit | 422 |
Epoch Day | 40.91271434 |
Epoch Year | 2019 |
RAAN | 35.3142 |
Inclination | 86.3953 |
Eccentricity | 0.0001892 |
Argument of Perigee | 82.7027 |
Mean Anonmoly | 277.4383 |
Mean Motion | 14.34216941 |
Decay Rate | -8E-08 |
L1 | 1 43925U 19002D 19040.91271434 -.00000008 00000-0 -97675-5 0 9999 |
L2 | 2 43925 86.3953 35.3142 0001892 82.7027 277.4383 14.34216941 4220 |
Live tracking and technical data element details for IRIDIUM 173 (NORAD 43925). IRIDIUM 173 can be tracked NOW for your location showing map with azimuth and elevation plus other details from your city location.
Track the satellite on the map from your city or location and see movement details for azimuth, elevation, latitude, longitude, range, height, and movement on the map or in text.
IsCatalogInMostPopularTable: catalog: 43925, numindb: 11
Update: records affected: 1
GetName: 43925 IRIDIUM 173
Hit Count: updated at: Thu, 21 Feb 2019 12:24:37 GMT